Time,TemperatureF,DewpointF,PressureIn,WindDirection,WindDirectionDegrees,WindSpeedMPH,WindSpeedGustMPH,Humidity,HourlyPrecipIn,Conditions,Clouds,dailyrainin,SoftwareType,DateUTC
2013-10-31 00:01:00,51.0,44.0,30.11,SW,227,0.0,-999.0,78,-99.99,,,-99.99,,2013-10-31 07:01:00,
2013-10-31 00:42:00,50.0,44.0,30.11,SW,227,0.0,-999.0,81,-99.99,,,-99.99,,2013-10-31 07:42:00,
2013-10-31 00:52:00,50.0,44.0,30.11,SW,227,0.0,-999.0,81,-99.99,,,-99.99,,2013-10-31 07:52:00,
2013-10-31 01:02:00,50.0,44.0,30.11,SW,227,0.0,-999.0,81,-99.99,,,-99.99,,2013-10-31 08:02:00,
2013-10-31 02:11:00,53.0,42.0,30.10,SSW,209,0.0,-999.0,65,-99.99,,,-99.99,,2013-10-31 09:11:00,
2013-10-31 02:21:00,53.0,42.0,30.10,SSW,209,0.0,-999.0,65,-99.99,,,-99.99,,2013-10-31 09:21:00,
2013-10-31 02:43:00,51.0,43.0,30.10,SSW,209,0.0,-999.0,74,-99.99,,,-99.99,,2013-10-31 09:43:00,
2013-10-31 02:53:00,51.0,43.0,30.10,SSW,209,0.0,-999.0,74,-99.99,,,-99.99,,2013-10-31 09:53:00,
2013-10-31 03:03:00,51.0,43.0,30.10,SSW,209,0.0,-999.0,74,-99.99,,,-99.99,,2013-10-31 10:03:00,
2013-10-31 03:42:00,50.0,43.0,30.09,SSW,209,0.0,-999.0,77,-99.99,,,-99.99,,2013-10-31 10:42:00,
2013-10-31 03:53:00,50.0,43.0,30.09,SSW,209,0.0,-999.0,77,-99.99,,,-99.99,,2013-10-31 10:53:00,
2013-10-31 04:12:00,50.0,43.0,30.09,SSW,209,0.0,-999.0,78,-99.99,,,-99.99,,2013-10-31 11:12:00,
2013-10-31 04:21:00,50.0,43.0,30.09,SSW,209,0.0,-999.0,78,-99.99,,,-99.99,,2013-10-31 11:21:00,
2013-10-31 04:42:00,52.0,43.0,30.08,SW,217,1.0,-999.0,72,-99.99,,,-99.99,,2013-10-31 11:42:00,
2013-10-31 04:52:00,52.0,43.0,30.08,SW,217,1.0,-999.0,72,-99.99,,,-99.99,,2013-10-31 11:52:00,
2013-10-31 05:12:00,52.0,44.0,30.08,NW,323,0.0,-999.0,75,-99.99,,,-99.99,,2013-10-31 12:12:00,
2013-10-31 05:21:00,52.0,44.0,30.08,NW,323,0.0,-999.0,75,-99.99,,,-99.99,,2013-10-31 12:21:00,
2013-10-31 05:42:00,51.0,44.0,30.09,SSW,207,0.0,-999.0,77,-99.99,,,-99.99,,2013-10-31 12:42:00,
2013-10-31 05:52:00,51.0,44.0,30.09,SSW,207,0.0,-999.0,77,-99.99,,,-99.99,,2013-10-31 12:52:00,
2013-10-31 06:42:00,50.0,45.0,30.10,SSW,207,0.0,-999.0,84,-99.99,,,-99.99,,2013-10-31 13:42:00,
2013-10-31 06:52:00,50.0,45.0,30.10,SSW,207,0.0,-999.0,84,-99.99,,,-99.99,,2013-10-31 13:52:00,
2013-10-31 07:42:00,50.0,46.0,30.10,SW,227,0.0,-999.0,85,-99.99,,,-99.99,,2013-10-31 14:42:00,
2013-10-31 07:52:00,50.0,46.0,30.10,SW,227,0.0,-999.0,85,-99.99,,,-99.99,,2013-10-31 14:52:00,
2013-10-31 08:01:00,50.0,46.0,30.10,SW,227,0.0,-999.0,85,-99.99,,,-99.99,,2013-10-31 15:01:00,
2013-10-31 09:12:00,53.0,45.0,30.11,SW,224,2.0,-999.0,74,-99.99,,,-99.99,,2013-10-31 16:12:00,
2013-10-31 09:22:00,53.0,45.0,30.11,SW,224,2.0,-999.0,74,-99.99,,,-99.99,,2013-10-31 16:22:00,
2013-10-31 09:43:00,54.0,46.0,30.11,SW,227,3.0,-999.0,74,-99.99,,,-99.99,,2013-10-31 16:43:00,
2013-10-31 09:53:00,54.0,46.0,30.11,SW,227,3.0,-999.0,74,-99.99,,,-99.99,,2013-10-31 16:53:00,
2013-10-31 10:02:00,54.0,46.0,30.11,SW,227,3.0,-999.0,74,-99.99,,,-99.99,,2013-10-31 17:02:00,
2013-10-31 10:43:00,53.0,47.0,30.13,SW,216,0.0,-999.0,81,-99.99,,,-99.99,,2013-10-31 17:43:00,
2013-10-31 10:52:00,53.0,47.0,30.13,SW,216,0.0,-999.0,81,-99.99,,,-99.99,,2013-10-31 17:52:00,
2013-10-31 11:12:00,53.0,47.0,30.14,SW,216,0.0,-999.0,81,-99.99,,,-99.99,,2013-10-31 18:12:00,
2013-10-31 11:21:00,53.0,47.0,30.14,SW,216,0.0,-999.0,81,-99.99,,,-99.99,,2013-10-31 18:21:00,
2013-10-31 11:32:00,53.0,47.0,30.14,SW,216,0.0,-999.0,81,-99.99,,,-99.99,,2013-10-31 18:32:00,
2013-10-31 12:42:00,53.0,48.0,30.15,SW,214,1.0,-999.0,84,-99.99,,,-99.99,,2013-10-31 19:42:00,
2013-10-31 12:52:00,53.0,48.0,30.15,SW,214,1.0,-999.0,84,-99.99,,,-99.99,,2013-10-31 19:52:00,
2013-10-31 13:11:00,54.0,49.0,30.15,SW,214,0.0,-999.0,84,-99.99,,,-99.99,,2013-10-31 20:11:00,
2013-10-31 13:22:00,54.0,49.0,30.15,SW,214,0.0,-999.0,84,-99.99,,,-99.99,,2013-10-31 20:22:00,
2013-10-31 13:42:00,53.0,49.0,30.15,SW,214,1.0,-999.0,86,-99.99,,,-99.99,,2013-10-31 20:42:00,
2013-10-31 13:52:00,53.0,49.0,30.15,SW,214,1.0,-999.0,86,-99.99,,,-99.99,,2013-10-31 20:52:00,
2013-10-31 14:02:00,53.0,49.0,30.15,SW,214,1.0,-999.0,86,-99.99,,,-99.99,,2013-10-31 21:02:00,
2013-10-31 14:44:00,56.0,51.0,30.14,SW,217,4.0,-999.0,83,-99.99,,,-99.99,,2013-10-31 21:44:00,
2013-10-31 14:54:00,56.0,51.0,30.14,SW,217,4.0,-999.0,83,-99.99,,,-99.99,,2013-10-31 21:54:00,
2013-10-31 15:13:00,58.0,52.0,30.14,SSW,210,6.0,-999.0,80,-99.99,,,-99.99,,2013-10-31 22:13:00,
2013-10-31 15:24:00,58.0,52.0,30.14,SSW,210,6.0,-999.0,80,-99.99,,,-99.99,,2013-10-31 22:24:00,
2013-10-31 15:33:00,58.0,52.0,30.14,SSW,210,6.0,-999.0,80,-99.99,,,-99.99,,2013-10-31 22:33:00,
2013-10-31 16:43:00,57.0,52.0,30.14,SSW,195,5.0,-999.0,82,-99.99,,,-99.99,,2013-10-31 23:43:00,
2013-10-31 16:54:00,57.0,52.0,30.14,SSW,195,5.0,-999.0,82,-99.99,,,-99.99,,2013-10-31 23:54:00,
2013-10-31 17:11:00,58.0,52.0,30.14,WSW,253,2.0,-999.0,80,-99.99,,,-99.99,,2013-11-01 00:11:00,
2013-10-31 17:21:00,58.0,52.0,30.14,WSW,253,2.0,-999.0,80,-99.99,,,-99.99,,2013-11-01 00:21:00,
2013-10-31 17:42:00,57.0,52.0,30.14,SW,220,1.0,-999.0,84,-99.99,,,-99.99,,2013-11-01 00:42:00,
2013-10-31 17:52:00,57.0,52.0,30.14,SW,220,1.0,-999.0,84,-99.99,,,-99.99,,2013-11-01 00:52:00,
2013-10-31 18:01:00,57.0,52.0,30.14,SW,220,1.0,-999.0,84,-99.99,,,-99.99,,2013-11-01 01:01:00,
2013-10-31 18:42:00,56.0,52.0,30.15,SW,220,0.0,-999.0,85,-99.99,,,-99.99,,2013-11-01 01:42:00,
2013-10-31 18:52:00,56.0,52.0,30.15,SW,220,0.0,-999.0,85,-99.99,,,-99.99,,2013-11-01 01:52:00,
2013-10-31 19:02:00,56.0,52.0,30.15,SW,220,0.0,-999.0,85,-99.99,,,-99.99,,2013-11-01 02:02:00,
2013-10-31 19:42:00,54.0,50.0,30.16,SW,220,0.0,-999.0,87,-99.99,,,-99.99,,2013-11-01 02:42:00,
2013-10-31 19:52:00,54.0,50.0,30.16,SW,220,0.0,-999.0,87,-99.99,,,-99.99,,2013-11-01 02:52:00,
2013-10-31 20:03:00,54.0,50.0,30.16,SW,220,0.0,-999.0,87,-99.99,,,-99.99,,2013-11-01 03:03:00,
2013-10-31 20:45:00,53.0,49.0,30.17,SW,220,0.0,-999.0,87,-99.99,,,-99.99,,2013-11-01 03:45:00,
2013-10-31 20:54:00,53.0,49.0,30.17,SW,220,0.0,-999.0,87,-99.99,,,-99.99,,2013-11-01 03:54:00,
2013-10-31 21:03:00,53.0,49.0,30.17,SW,220,0.0,-999.0,87,-99.99,,,-99.99,,2013-11-01 04:03:00,
2013-10-31 22:12:00,53.0,50.0,30.19,SW,220,0.0,-999.0,88,-99.99,,,-99.99,,2013-11-01 05:12:00,
2013-10-31 22:23:00,53.0,50.0,30.19,SW,220,0.0,-999.0,88,-99.99,,,-99.99,,2013-11-01 05:23:00,
2013-10-31 22:33:00,53.0,50.0,30.19,SW,220,0.0,-999.0,88,-99.99,,,-99.99,,2013-11-01 05:33:00,
2013-10-31 23:12:00,52.0,49.0,30.20,SW,220,0.0,-999.0,88,-99.99,,,-99.99,,2013-11-01 06:12:00,
2013-10-31 23:21:00,52.0,49.0,30.20,SW,220,0.0,-999.0,88,-99.99,,,-99.99,,2013-11-01 06:21:00,
2013-10-31 23:42:00,52.0,49.0,30.21,SW,220,0.0,-999.0,89,-99.99,,,-99.99,,2013-11-01 06:42:00,
2013-10-31 23:52:00,52.0,49.0,30.21,SW,220,0.0,-999.0,89,-99.99,,,-99.99,,2013-11-01 06:52:00,